Weather History for Hayward, WI

Change the Weather History Date:

Saturday, November 23, 2013

  Actual Average Record
Temperature  
Mean Temperature 8 °F -  
Max Temperature 15 °F 38 °F 60 °F (2006)
Min Temperature -2 °F 21 °F -2 °F (2013)
Degree Days  
Heating Degree Days 58    
Moisture  
Dew Point -1 °F    
Average Humidity 66    
Maximum Humidity 80    
Minimum Humidity 45    
Precipitation  
Precipitation 0.00 in - - ()
Sea Level Pressure  
Sea Level Pressure 30.70 in    
Wind  
Wind Speed 5 mph (NW)    
Max Wind Speed 9 mph    
Max Gust Speed 20 mph    
Visibility 8 miles    
Events Snow    
Averages and records for this station are not official NWS values.
T = Trace of Precipitation, MM = Missing Value Source: NWS Daily Summary

Daily Weather History Graph

Daily Weather History Graph

Search for Another Location

Airport:

Trip Planner

Search our weather history database for the weather conditions in past years. The results will help you decide how hot, cold, wet, or windy it might be!

Date:

Astronomy

Nov. 23, 2013 Rise Set
Actual Time 7:17 AM CST 4:26 PM CST
Civil Twilight 6:44 AM CST 4:59 PM CST
Nautical Twilight 6:07 AM CST 5:36 PM CST
Astronomical Twilight 5:31 AM CST 6:12 PM CST
Moon 10:02 PM CST (11/23) 11:28 AM CST (11/23)
Length of Visible Light 10h 15m
Length of Day
9h 09m
Waning Gibbous, 69% of the Moon is Illuminated
Nov 23
Waning Gibbous
Nov 25
Last Quarter
Dec 2
New
Dec 9
First Quarter
Dec 17
Full

Hourly Weather History & Observations

Time (CST) Temp. Windchill Dew Point Humidity Pressure Visibility Wind Dir Wind Speed Gust Speed Precip Events Conditions
12:18 AM 10.4 °F 0.8 °F 1.4 °F 67% 30.53 in 10.0 mi Variable 5.8 mph - N/A   Overcast
12:53 AM 9.0 °F 0.6 °F 1.9 °F 73% 30.60 in 6.0 mi Variable 4.6 mph - 0.00 in Snow Light Snow
1:53 AM 8.1 °F -2.0 °F 1.0 °F 73% 30.63 in 9.0 mi Variable 5.8 mph - 0.00 in   Overcast
2:51 AM 8.6 °F 2.0 °F 3.2 °F 79% 30.57 in 2.0 mi Variable 3.5 mph - 0.00 in Snow Light Snow
2:53 AM 8.1 °F -0.5 °F 3.0 °F 80% 30.65 in 2.0 mi Variable 4.6 mph - 0.00 in Snow Light Snow
3:11 AM 8.6 °F 0.1 °F 3.2 °F 79% 30.57 in 3.0 mi Variable 4.6 mph - 0.00 in Snow Light Snow
3:19 AM 8.6 °F 0.1 °F 3.2 °F 79% 30.57 in 1.8 mi Variable 4.6 mph - 0.00 in Snow Light Snow
3:27 AM 8.6 °F 2.0 °F 3.2 °F 79% 30.58 in 2.0 mi Variable 3.5 mph - 0.00 in Snow Light Snow
3:37 AM 8.6 °F 0.1 °F 3.2 °F 79% 30.58 in 1.8 mi Variable 4.6 mph - 0.00 in Snow Light Snow
3:43 AM 10.4 °F 0.8 °F 3.2 °F 73% 30.58 in 2.5 mi Variable 5.8 mph - 0.00 in Snow Light Snow
3:51 AM 10.4 °F -2.4 °F 1.4 °F 67% 30.59 in 9.0 mi NNW 9.2 mph - 0.00 in   Overcast
3:53 AM 10.0 °F -1.9 °F 1.0 °F 67% 30.66 in 9.0 mi NW 8.1 mph - 0.00 in   Overcast
4:53 AM 9.0 °F -2.2 °F -0.9 °F 64% 30.69 in 10.0 mi Variable 6.9 mph - N/A   Overcast
5:39 AM 8.6 °F -2.6 °F -2.2 °F 62% 30.63 in 10.0 mi Variable 6.9 mph 19.6 mph 0.00 in   Overcast
5:53 AM 9.0 °F -2.2 °F -2.0 °F 61% 30.71 in 10.0 mi Variable 6.9 mph - 0.00 in   Overcast
6:53 AM 9.0 °F 0.6 °F -2.0 °F 61% 30.73 in 10.0 mi Variable 4.6 mph - 0.00 in   Overcast
7:53 AM 9.0 °F -0.9 °F -2.0 °F 61% 30.76 in 10.0 mi Variable 5.8 mph - N/A   Mostly Cloudy
8:53 AM 10.9 °F 1.4 °F -0.9 °F 59% 30.78 in 10.0 mi Variable 5.8 mph - N/A   Mostly Cloudy
9:04 AM 10.4 °F -0.4 °F -0.4 °F 62% 30.70 in 10.0 mi Variable 6.9 mph - N/A   Mostly Cloudy
9:46 AM 8.6 °F 0.1 °F -2.2 °F 62% 30.71 in 10.0 mi Variable 4.6 mph - N/A   Scattered Clouds
9:53 AM 10.0 °F -0.9 °F -2.9 °F 56% 30.81 in 10.0 mi Variable 6.9 mph - N/A   Partly Cloudy
10:53 AM 12.0 °F 0.5 °F -2.0 °F 53% 30.80 in 10.0 mi NW 8.1 mph 18.4 mph N/A   Partly Cloudy
11:53 AM 12.9 °F 1.6 °F -2.9 °F 49% 30.80 in 10.0 mi NW 8.1 mph - N/A   Scattered Clouds
12:53 PM 12.0 °F 2.7 °F -4.0 °F 49% 30.79 in 10.0 mi Variable 5.8 mph - N/A   Clear
1:53 PM 15.1 °F 6.4 °F -2.0 °F 47% 30.77 in 10.0 mi Variable 5.8 mph - N/A   Scattered Clouds
2:53 PM 15.1 °F 9.4 °F -2.9 °F 45% 30.76 in 10.0 mi Variable 3.5 mph - N/A   Partly Cloudy
3:53 PM 14.0 °F 5.1 °F -2.9 °F 47% 30.76 in 10.0 mi Variable 5.8 mph - N/A   Clear
4:53 PM 10.0 °F - -2.9 °F 56% 30.76 in 10.0 mi Calm Calm - N/A   Clear
5:53 PM 7.0 °F - -2.9 °F 64% 30.77 in 10.0 mi Calm Calm - N/A   Clear
6:53 PM 3.0 °F - -2.9 °F 76% 30.78 in 10.0 mi Calm Calm - N/A   Clear
7:53 PM 3.9 °F - -2.9 °F 73% 30.77 in 10.0 mi Calm Calm - N/A   Clear
8:53 PM 3.0 °F - -5.1 °F 69% 30.76 in 10.0 mi Calm Calm - N/A   Clear
9:53 PM -0.0 °F - -5.1 °F 79% 30.75 in 10.0 mi Calm Calm - N/A   Clear
10:53 PM -0.0 °F - -5.1 °F 79% 30.74 in 10.0 mi Calm Calm - N/A   Clear
11:53 PM -2.0 °F - -7.1 °F 79% 30.73 in 10.0 mi Calm Calm - N/A   Clear